Weather History for Carrollton, GA

Change the Weather History Date:

Sunday, September 8, 2013

  Actual Average Record
Temperature  
Mean Temperature 74 °F -  
Max Temperature 87 °F 84 °F 98 °F (1954)
Min Temperature 62 °F 62 °F 51 °F (1951)
Cooling Degree Days 10    
Growing Degree Days 24 (Base 50)    
Moisture  
Dew Point 67 °F    
Average Humidity 79    
Maximum Humidity 100    
Minimum Humidity 51    
Precipitation  
Precipitation 0.00 in - - ()
Sea Level Pressure  
Sea Level Pressure 30.04 in    
Wind  
Wind Speed 1 mph (NNW)    
Max Wind Speed 7 mph    
Max Gust Speed -    
Visibility 10 miles    
Events      
Averages and records for this station are not official NWS values.
T = Trace of Precipitation, MM = Missing Value Source: NWS Daily Summary

Daily Weather History Graph

Daily Weather History Graph

Search for Another Location

Airport:

Trip Planner

Search our weather history database for the weather conditions in past years. The results will help you decide how hot, cold, wet, or windy it might be!

Date:

Astronomy

Sep. 08, 2013 Rise Set
Actual Time 7:19 AM EDT 7:56 PM EDT
Civil Twilight 6:54 AM EDT 8:21 PM EDT
Nautical Twilight 6:24 AM EDT 8:50 PM EDT
Astronomical Twilight 5:54 AM EDT 9:21 PM EDT
Moon 10:24 AM EDT (9/8) 9:44 PM EDT (9/8)
Length of Visible Light 13h 27m
Length of Day
12h 36m
Waxing Crescent, 11% of the Moon is Illuminated
Sep 8
Waxing Crescent
Sep 12
First Quarter
Sep 19
Full
Sep 26
Last Quarter
Oct 4
New

Hourly Weather History & Observations

Time (EDT) Temp. Heat Index Dew Point Humidity Pressure Visibility Wind Dir Wind Speed Gust Speed Precip Events Conditions
12:15 AM 68.0 °F - 66.2 °F 94% 30.07 in 10.0 mi Calm Calm - N/A   Clear
12:35 AM 68.0 °F - 64.4 °F 88% 30.07 in 10.0 mi Calm Calm - N/A   Clear
12:55 AM 68.0 °F - 64.4 °F 88% 30.07 in 10.0 mi Calm Calm - N/A   Clear
1:15 AM 68.0 °F - 64.4 °F 88% 30.07 in 10.0 mi Calm Calm - N/A   Clear
1:35 AM 66.2 °F - 64.4 °F 94% 30.07 in 10.0 mi Calm Calm - N/A   Clear
1:55 AM 66.2 °F - 64.4 °F 94% 30.06 in 10.0 mi Calm Calm - N/A   Clear
2:15 AM 64.4 °F - 64.4 °F 100% 30.06 in 10.0 mi Calm Calm - N/A   Clear
2:35 AM 66.2 °F - 64.4 °F 94% 30.06 in 10.0 mi Calm Calm - N/A   Clear
2:55 AM 64.4 °F - 64.4 °F 100% 30.05 in 10.0 mi Calm Calm - N/A   Clear
3:15 AM 64.4 °F - 64.4 °F 100% 30.04 in 10.0 mi Calm Calm - N/A   Clear
3:35 AM 64.4 °F - 64.4 °F 100% 30.04 in 10.0 mi Calm Calm - N/A   Clear
3:55 AM 64.4 °F - 62.6 °F 94% 30.03 in 10.0 mi Calm Calm - N/A   Clear
4:15 AM 64.4 °F - 62.6 °F 94% 30.03 in 10.0 mi Calm Calm - N/A   Clear
4:35 AM 64.4 °F - 62.6 °F 94% 30.03 in 10.0 mi Calm Calm - N/A   Clear
4:55 AM 64.4 °F - 62.6 °F 94% 30.03 in 10.0 mi Calm Calm - N/A   Clear
5:15 AM 64.4 °F - 62.6 °F 94% 30.03 in 10.0 mi Calm Calm - N/A   Clear
5:35 AM 62.6 °F - 62.6 °F 100% 30.03 in 10.0 mi Calm Calm - N/A   Clear
5:55 AM 64.4 °F - 62.6 °F 94% 30.03 in 10.0 mi Calm Calm - N/A   Clear
6:15 AM 62.6 °F - 62.6 °F 100% 30.03 in 10.0 mi Calm Calm - N/A   Clear
6:35 AM 64.4 °F - 62.6 °F 94% 30.03 in 10.0 mi Calm Calm - N/A   Clear
6:55 AM 62.6 °F - 60.8 °F 94% 30.04 in 7.0 mi Calm Calm - N/A   Clear
7:15 AM 62.6 °F - 62.6 °F 100% 30.05 in 10.0 mi Calm Calm - N/A   Clear
7:35 AM 62.6 °F - 62.6 °F 100% 30.05 in 10.0 mi Calm Calm - N/A   Clear
7:55 AM 62.6 °F - 60.8 °F 94% 30.05 in 7.0 mi Calm Calm - N/A   Clear
8:15 AM 64.4 °F - 62.6 °F 94% 30.05 in 7.0 mi Calm Calm - N/A   Clear
8:35 AM 66.2 °F - 64.4 °F 94% 30.05 in 10.0 mi Calm Calm - N/A   Clear
8:55 AM 68.0 °F - 66.2 °F 94% 30.05 in 10.0 mi Calm Calm - N/A   Clear
9:15 AM 71.6 °F - 66.2 °F 83% 30.06 in 10.0 mi Calm Calm - N/A   Clear
9:35 AM 73.4 °F - 68.0 °F 83% 30.07 in 10.0 mi Calm Calm - N/A   Clear
9:55 AM 77.0 °F - 69.8 °F 78% 30.07 in 10.0 mi Calm Calm - N/A   Clear
10:15 AM 78.8 °F - 68.0 °F 69% 30.07 in 10.0 mi NW 3.5 mph - N/A   Clear
10:35 AM 78.8 °F - 68.0 °F 69% 30.07 in 10.0 mi Calm Calm - N/A   Clear
10:55 AM 80.6 °F 83.2 °F 68.0 °F 65% 30.07 in 10.0 mi NNW 3.5 mph - N/A   Clear
11:15 AM 80.6 °F 83.2 °F 68.0 °F 65% 30.06 in 10.0 mi NW 4.6 mph - N/A   Clear
11:35 AM 80.6 °F 83.2 °F 68.0 °F 65% 30.07 in 10.0 mi West 4.6 mph - N/A   Clear
11:55 AM 82.4 °F 85.4 °F 68.0 °F 62% 30.07 in 10.0 mi NW 4.6 mph - N/A   Clear
12:15 PM 82.4 °F 85.4 °F 68.0 °F 62% 30.07 in 10.0 mi Calm Calm - N/A   Clear
12:35 PM 82.4 °F 85.4 °F 68.0 °F 62% 30.06 in 10.0 mi WNW 3.5 mph - N/A   Clear
12:55 PM 82.4 °F 85.4 °F 68.0 °F 62% 30.06 in 10.0 mi North 4.6 mph - N/A   Clear
1:15 PM 84.2 °F 87.3 °F 68.0 °F 58% 30.06 in 10.0 mi North 3.5 mph - N/A   Scattered Clouds
1:35 PM 86.0 °F 88.2 °F 66.2 °F 51% 30.06 in 10.0 mi NNW 4.6 mph - N/A   Scattered Clouds
1:55 PM 86.0 °F 89.4 °F 68.0 °F 55% 30.05 in 10.0 mi Calm Calm - N/A   Scattered Clouds
2:15 PM 84.2 °F 86.6 °F 66.2 °F 55% 30.04 in 10.0 mi North 3.5 mph - N/A   Scattered Clouds
2:35 PM 86.0 °F 89.4 °F 68.0 °F 55% 30.04 in 10.0 mi North 5.8 mph - N/A   Mostly Cloudy
2:55 PM 84.2 °F 85.6 °F 64.4 °F 51% 30.03 in 10.0 mi NE 3.5 mph - N/A   Scattered Clouds
3:15 PM 86.0 °F 88.2 °F 66.2 °F 51% 30.02 in 10.0 mi NNW 4.6 mph - N/A   Scattered Clouds
3:35 PM 86.0 °F 89.4 °F 68.0 °F 55% 30.02 in 10.0 mi North 5.8 mph - N/A   Scattered Clouds
3:55 PM 86.0 °F 89.4 °F 68.0 °F 55% 30.01 in 10.0 mi NNW 6.9 mph - N/A   Clear
4:15 PM 86.0 °F 88.2 °F 66.2 °F 51% 30.01 in 10.0 mi North 5.8 mph - N/A   Scattered Clouds
4:35 PM 87.8 °F 91.4 °F 68.0 °F 52% 30.00 in 10.0 mi North 4.6 mph - N/A   Mostly Cloudy
4:55 PM 86.0 °F 88.2 °F 66.2 °F 51% 30.00 in 10.0 mi NNW 4.6 mph - N/A   Scattered Clouds
5:15 PM 86.0 °F 89.4 °F 68.0 °F 55% 30.00 in 10.0 mi NNW 4.6 mph - N/A   Scattered Clouds
5:35 PM 86.0 °F 89.4 °F 68.0 °F 55% 30.00 in 10.0 mi WNW 5.8 mph - N/A   Scattered Clouds
5:55 PM 86.0 °F 89.4 °F 68.0 °F 55% 30.00 in 10.0 mi WNW 3.5 mph - N/A   Clear
6:15 PM 86.0 °F 89.4 °F 68.0 °F 55% 30.00 in 10.0 mi NW 4.6 mph - N/A   Clear
6:35 PM 84.2 °F 87.3 °F 68.0 °F 58% 30.00 in 10.0 mi Calm Calm - N/A   Clear
6:55 PM 82.4 °F 85.4 °F 68.0 °F 62% 30.00 in 10.0 mi Calm Calm - N/A   Clear
7:15 PM 82.4 °F 86.3 °F 69.8 °F 66% 30.00 in 10.0 mi NW 3.5 mph - N/A   Clear
7:35 PM 80.6 °F 84.6 °F 71.6 °F 74% 30.00 in 10.0 mi Calm Calm - N/A   Clear
7:55 PM 78.8 °F - 71.6 °F 78% 30.00 in 10.0 mi Calm Calm - N/A   Clear
8:15 PM 78.8 °F - 71.6 °F 78% 30.00 in 10.0 mi Calm Calm - N/A   Clear
8:35 PM 77.0 °F - 71.6 °F 83% 30.00 in 10.0 mi Calm Calm - N/A   Clear
8:55 PM 77.0 °F - 71.6 °F 83% 30.01 in 10.0 mi Calm Calm - N/A   Clear
9:15 PM 73.4 °F - 69.8 °F 88% 30.01 in 10.0 mi Calm Calm - N/A   Clear
9:35 PM 73.4 °F - 71.6 °F 94% 30.02 in 10.0 mi Calm Calm - N/A   Clear
9:55 PM 73.4 °F - 71.6 °F 94% 30.02 in 10.0 mi Calm Calm - N/A   Clear
10:15 PM 73.4 °F - 69.8 °F 88% 30.02 in 10.0 mi Calm Calm - N/A   Clear
10:35 PM 71.6 °F - 69.8 °F 94% 30.03 in 7.0 mi Calm Calm - N/A   Clear
10:55 PM 71.6 °F - 69.8 °F 94% 30.04 in 7.0 mi Calm Calm - N/A   Clear
11:15 PM 71.6 °F - 69.8 °F 94% 30.04 in 7.0 mi Calm Calm - N/A   Clear
11:35 PM 71.6 °F - 69.8 °F 94% 30.04 in 7.0 mi Calm Calm - N/A   Clear
11:55 PM 71.6 °F - 69.8 °F 94% 30.04 in 7.0 mi Calm Calm - N/A   Clear